EN

Hourly Weather Lugovaya

Today, 14 May, Friday

Time Temperature Precipitation Wind Pressure Humidity
00:00 +8°C° 0.1 mm 4 mps 735 mmHg 94%
01:00 +8°C° 0.1 mm 4 mps 735 mmHg 95%
02:00 +10°C° 0 mm 4 mps 735 mmHg 97%
03:00 +9°C° 0.3 mm 5 mps 734 mmHg 97%
04:00 +9°C° 0.3 mm 5 mps 734 mmHg 97%
05:00 +9°C° 0.3 mm 5 mps 734 mmHg 97%
06:00 +9°C° 0.2 mm 5 mps 734 mmHg 97%
07:00 +9°C° 0.2 mm 5 mps 734 mmHg 97%
08:00 +9°C° 0 mm 5 mps 734 mmHg 97%
09:00 +10°C° 0.2 mm 5 mps 735 mmHg 95%
10:00 +10°C° 0.2 mm 5 mps 735 mmHg 94%
11:00 +12°C° 0.2 mm 5 mps 735 mmHg 92%
12:00 +13°C° 0.1 mm 4 mps 735 mmHg 89%
13:00 +14°C° 0.1 mm 4 mps 735 mmHg 86%
14:00 +15°C° 0.1 mm 4 mps 735 mmHg 83%
15:00 +17°C° 0.3 mm 3 mps 735 mmHg 80%
16:00 +17°C° 0.3 mm 3 mps 735 mmHg 77%
17:00 +18°C° 0.3 mm 3 mps 735 mmHg 74%
18:00 +17°C° 0.6 mm 3 mps 735 mmHg 79%
19:00 +14°C° 0.6 mm 3 mps 735 mmHg 85%
20:00 +14°C° 0.6 mm 2 mps 735 mmHg 90%
21:00 +13°C° 0.1 mm 2 mps 735 mmHg 90%
22:00 +13°C° 0.1 mm 2 mps 735 mmHg 91%
23:00 +12°C° 0.1 mm 1 mps 735 mmHg 92%

Tomorrow, 15 May, Saturday

Time Temperature Precipitation Wind Pressure Humidity
00:00 +12°C° 0 mm 1 mps 735 mmHg 92%
01:00 +11°C° 0 mm 1 mps 735 mmHg 93%
02:00 +11°C° 0 mm 1 mps 735 mmHg 93%
03:00 +11°C° 0 mm 1 mps 735 mmHg 94%
04:00 +11°C° 0 mm 1 mps 735 mmHg 95%
05:00 +10°C° 0 mm 2 mps 735 mmHg 95%
06:00 +12°C° 0 mm 2 mps 736 mmHg 92%
07:00 +14°C° 0 mm 2 mps 736 mmHg 89%
08:00 +15°C° 0 mm 2 mps 736 mmHg 86%
09:00 +16°C° 0.3 mm 2 mps 737 mmHg 81%
10:00 +17°C° 0.3 mm 3 mps 737 mmHg 76%
11:00 +18°C° 0.3 mm 3 mps 737 mmHg 71%
12:00 +19°C° 0.2 mm 3 mps 737 mmHg 68%
13:00 +19°C° 0.2 mm 4 mps 737 mmHg 66%
14:00 +19°C° 0.2 mm 4 mps 737 mmHg 63%
15:00 +19°C° 0.3 mm 4 mps 737 mmHg 67%
16:00 +18°C° 0.3 mm 4 mps 738 mmHg 71%
17:00 +17°C° 0.3 mm 5 mps 738 mmHg 75%
18:00 +15°C° 0.1 mm 4 mps 738 mmHg 80%
19:00 +14°C° 0.1 mm 3 mps 738 mmHg 85%
20:00 +12°C° 0.1 mm 3 mps 739 mmHg 90%
21:00 +12°C° 0 mm 2 mps 739 mmHg 91%
22:00 +10°C° 0 mm 2 mps 739 mmHg 92%
23:00 +9°C° 0 mm 2 mps 739 mmHg 93%

Day after tomorrow, 16 May, Sunday

Time Temperature Precipitation Wind Pressure Humidity
00:00 +9°C° 0 mm 2 mps 739 mmHg 93%
01:00 +9°C° 0 mm 2 mps 739 mmHg 93%
02:00 +8°C° 0 mm 2 mps 739 mmHg 94%
03:00 +8°C° 0 mm 2 mps 740 mmHg 94%
04:00 +8°C° 0 mm 2 mps 740 mmHg 94%
05:00 +8°C° 0 mm 2 mps 740 mmHg 95%
06:00 +10°C° 0 mm 2 mps 740 mmHg 89%
07:00 +13°C° 0 mm 2 mps 740 mmHg 83%
08:00 +14°C° 0 mm 2 mps 740 mmHg 77%
09:00 +16°C° 0 mm 3 mps 740 mmHg 72%
10:00 +17°C° 0 mm 3 mps 740 mmHg 67%
11:00 +18°C° 0 mm 4 mps 740 mmHg 62%
12:00 +18°C° 0 mm 4 mps 740 mmHg 62%
13:00 +19°C° 0 mm 4 mps 739 mmHg 61%
14:00 +20°C° 0 mm 5 mps 739 mmHg 61%
15:00 +20°C° 0.2 mm 4 mps 738 mmHg 64%
16:00 +19°C° 0.2 mm 4 mps 738 mmHg 67%
17:00 +19°C° 0.2 mm 4 mps 738 mmHg 70%
18:00 +18°C° 0.5 mm 4 mps 737 mmHg 75%
19:00 +17°C° 0.5 mm 4 mps 737 mmHg 81%
20:00 +14°C° 0.5 mm 4 mps 737 mmHg 87%
21:00 +14°C° 0.7 mm 4 mps 737 mmHg 88%
22:00 +14°C° 0.7 mm 5 mps 737 mmHg 90%
23:00 +14°C° 0.7 mm 5 mps 737 mmHg 92%

17 May, Monday

Time Temperature Precipitation Wind Pressure Humidity
00:00 +13°C° 1 mm 4 mps 737 mmHg 94%
01:00 +13°C° 1 mm 4 mps 737 mmHg 96%
02:00 +12°C° 1 mm 3 mps 737 mmHg 98%
03:00 +12°C° 0.9 mm 3 mps 737 mmHg 98%
04:00 +13°C° 0.9 mm 2 mps 736 mmHg 98%
05:00 +13°C° 0.9 mm 2 mps 736 mmHg 98%
06:00 +13°C° 1.7 mm 2 mps 737 mmHg 98%
07:00 +13°C° 1.7 mm 2 mps 737 mmHg 97%
08:00 +13°C° 1.7 mm 2 mps 737 mmHg 97%
09:00 +13°C° 0.1 mm 2 mps 738 mmHg 93%
10:00 +14°C° 0.1 mm 2 mps 738 mmHg 90%
11:00 +14°C° 0.1 mm 2 mps 738 mmHg 86%
12:00 +15°C° 0.1 mm 2 mps 738 mmHg 80%
13:00 +16°C° 0.1 mm 2 mps 737 mmHg 74%
14:00 +17°C° 0.1 mm 3 mps 737 mmHg 68%
15:00 +17°C° 0.1 mm 2 mps 737 mmHg 69%
16:00 +17°C° 0.1 mm 2 mps 737 mmHg 70%
17:00 +17°C° 0.1 mm 2 mps 737 mmHg 70%
18:00 +16°C° 0 mm 1 mps 737 mmHg 73%
19:00 +15°C° 0 mm 1 mps 737 mmHg 76%
20:00 +13°C° 0 mm 0 mps 736 mmHg 79%
21:00 +13°C° 0 mm 1 mps 737 mmHg 80%
22:00 +13°C° 0 mm 1 mps 737 mmHg 80%
23:00 +12°C° 0 mm 1 mps 737 mmHg 81%

18 May, Tuesday

Time Temperature Precipitation Wind Pressure Humidity
00:00 +12°C° 0 mm 2 mps 737 mmHg 83%
01:00 +12°C° 0 mm 2 mps 737 mmHg 85%
02:00 +12°C° 0 mm 2 mps 737 mmHg 87%
03:00 +12°C° 0 mm 2 mps 737 mmHg 87%
04:00 +12°C° 0 mm 2 mps 737 mmHg 87%
05:00 +12°C° 0 mm 2 mps 737 mmHg 88%
06:00 +12°C° 0 mm 2 mps 737 mmHg 87%
07:00 +13°C° 0 mm 2 mps 738 mmHg 85%
08:00 +12°C° 0 mm 3 mps 738 mmHg 84%
09:00 +13°C° 0 mm 3 mps 738 mmHg 79%
10:00 +16°C° 0 mm 3 mps 738 mmHg 73%
11:00 +17°C° 0 mm 3 mps 738 mmHg 68%
12:00 +17°C° 0.1 mm 4 mps 738 mmHg 64%
13:00 +18°C° 0.1 mm 4 mps 738 mmHg 60%
14:00 +18°C° 0.1 mm 4 mps 738 mmHg 57%
15:00 +18°C° 0.1 mm 4 mps 738 mmHg 60%
16:00 +17°C° 0.1 mm 4 mps 738 mmHg 63%
17:00 +17°C° 0.1 mm 4 mps 738 mmHg 66%
18:00 +16°C° 0 mm 3 mps 738 mmHg 70%
19:00 +14°C° 0 mm 3 mps 738 mmHg 74%
20:00 +13°C° 0 mm 2 mps 738 mmHg 78%
21:00 +13°C° 0 mm 2 mps 738 mmHg 80%
22:00 +11°C° 0 mm 3 mps 738 mmHg 81%
23:00 +11°C° 0 mm 3 mps 738 mmHg 83%

19 May, Wednesday

Time Temperature Precipitation Wind Pressure Humidity
00:00 +11°C° 0 mm 3 mps 738 mmHg 85%
01:00 +10°C° 0 mm 3 mps 738 mmHg 86%
02:00 +10°C° 0 mm 3 mps 738 mmHg 88%
03:00 +9°C° 0 mm 3 mps 738 mmHg 90%
04:00 +9°C° 0 mm 3 mps 738 mmHg 91%
05:00 +8°C° 0 mm 3 mps 738 mmHg 93%
06:00 +10°C° 0 mm 4 mps 739 mmHg 89%
07:00 +11°C° 0 mm 4 mps 739 mmHg 84%
08:00 +12°C° 0 mm 5 mps 739 mmHg 80%
09:00 +12°C° 0 mm 5 mps 739 mmHg 76%
10:00 +13°C° 0 mm 6 mps 739 mmHg 71%
11:00 +14°C° 0 mm 6 mps 740 mmHg 67%
12:00 +13°C° 0 mm 6 mps 740 mmHg 67%
13:00 +13°C° 0 mm 6 mps 740 mmHg 67%
14:00 +13°C° 0 mm 5 mps 740 mmHg 67%
15:00 +13°C° 0 mm 5 mps 740 mmHg 67%
16:00 +14°C° 0 mm 4 mps 741 mmHg 67%
17:00 +14°C° 0 mm 4 mps 741 mmHg 68%
18:00 +13°C° 0 mm 3 mps 741 mmHg 72%
19:00 +11°C° 0 mm 3 mps 741 mmHg 77%
20:00 +10°C° 0 mm 2 mps 742 mmHg 81%
21:00 +10°C° 0 mm 2 mps 742 mmHg 84%
22:00 +9°C° 0 mm 2 mps 742 mmHg 87%
23:00 +8°C° 0 mm 2 mps 742 mmHg 90%
Show more